Flag for India Weather past 2 weeks in Mumbai, Maharashtra, India

Now
70 °F

Passing clouds.


Feels Like: 70 °F
Forecast: 73 / 87 °F
Wind: 10 mph from East

Location: Bombay / Santacruz

Current Time: Dec 18, 2014 at 6:22:53 AM

Latest Report: Dec 18, 2014 at 5:10 AM


Visibility: 1 mi

Pressure: 29.95 "Hg

Humidity: 46%

Dew point: 48 °F

Location of MumbaiLocation

Historic Weather in Mumbai — Graph

°F

Mumbai temperature yesterday

Maximum temperature yesterday: 84 °F (at 1:40 PM)
Minimum temperature yesterday: 72 °F (at 7:10 AM)
Average temperature yesterday: 78 °F

Past Weeks' High & Low Weather Summary

 TemperatureHumidityPressure
High93 °F (Dec 3, 2:10 PM)94% (Dec 12, 8:10 AM)30.04 "Hg (Dec 12, 8:10 AM)
Low66 °F (Dec 15, 4:10 AM)18% (Dec 15, 2:40 PM)29.80 "Hg (Dec 10, 2:40 PM)
Average81 °F50%29.91 "Hg
* Reported Dec 3 4:40 AM — Dec 18 5:10 AM, Mumbai, Weather by CustomWeather, © 2014

Note: Actual official high and low records may vary slightly from our data, if they occured in-between our weather recording intervals... More about our weather records

Advertising

Mumbai weather history for previous 24 hours

 ConditionsComfort  
Time TempWeatherWind HumidityBarometerVisibility
5:10 AM
Dec 18
70 °FPassing clouds.10 mph46%29.95 "Hg1 mi
4:40 AM70 °FPassing clouds.9 mph46%29.95 "Hg1 mi
4:10 AM70 °FPassing clouds.9 mph46%29.95 "Hg1 mi
3:40 AM70 °FPassing clouds.12 mph46%29.95 "Hg1 mi
3:10 AM72 °FPassing clouds.9 mph47%29.95 "Hg1 mi
2:40 AM72 °FPassing clouds.8 mph47%29.95 "Hg1 mi
1:40 AM72 °FPassing clouds.6 mph47%29.95 "Hg1 mi
1:10 AM72 °FPassing clouds.7 mph47%29.95 "Hg1 mi
12:40 AM73 °FPassing clouds.7 mph47%29.98 "Hg1 mi
12:10 AM73 °FPassing clouds.8 mph47%29.98 "Hg1 mi
11:40 PM
Dec 17
73 °FPassing clouds.8 mph47%29.98 "Hg1 mi
10:40 PM75 °FPassing clouds.6 mph47%29.98 "Hg1 mi
10:10 PM77 °FPassing clouds.8 mph44%29.98 "Hg1 mi
9:40 PM79 °FPassing clouds.6 mph42%29.98 "Hg1 mi
9:10 PM79 °FPassing clouds.6 mph42%29.98 "Hg1 mi
8:40 PM79 °FPassing clouds.No wind45%29.98 "Hg1 mi
8:10 PM79 °FPassing clouds.No wind42%29.95 "Hg1 mi
7:40 PM81 °FPassing clouds.3 mph42%29.95 "Hg1 mi
6:40 PM81 °FPassing clouds.3 mph42%29.92 "Hg1 mi
6:10 PM81 °FPassing clouds.6 mph37%29.92 "Hg1 mi
5:40 PM82 °FPassing clouds.7 mph35%29.92 "Hg1 mi
5:10 PM84 °FPassing clouds.8 mph33%29.89 "Hg1 mi
4:40 PM84 °FScattered clouds.6 mph33%29.89 "Hg1 mi
4:10 PM84 °FScattered clouds.9 mph33%29.89 "Hg1 mi
3:40 PM84 °FScattered clouds.9 mph33%29.89 "Hg1 mi
3:10 PM84 °FScattered clouds.9 mph33%29.89 "Hg1 mi
2:40 PM84 °FScattered clouds.8 mph33%29.92 "Hg1 mi
2:10 PM84 °FScattered clouds.10 mph33%29.92 "Hg1 mi
1:40 PM84 °FScattered clouds.12 mph33%29.92 "Hg1 mi
1:10 PM82 °FPartly sunny.13 mph35%29.95 "Hg1 mi
12:40 PM82 °FScattered clouds.13 mph35%29.98 "Hg1 mi
12:10 PM81 °FScattered clouds.13 mph34%29.98 "Hg1 mi
11:40 AM79 °FScattered clouds.12 mph37%30.01 "Hg1 mi
11:10 AM79 °FScattered clouds.12 mph37%30.04 "Hg1 mi
10:40 AM77 °FScattered clouds.13 mph39%30.04 "Hg1 mi
10:10 AM75 °FScattered clouds.12 mph39%30.04 "Hg1 mi
9:40 AM75 °FScattered clouds.14 mph39%30.04 "Hg1 mi
9:10 AM73 °FScattered clouds.15 mph41%30.04 "Hg1 mi
8:40 AM73 °FScattered clouds.12 mph41%30.04 "Hg1 mi
8:10 AM72 °FScattered clouds.10 mph44%30.01 "Hg1 mi
7:40 AM73 °FScattered clouds.13 mph44%30.01 "Hg1 mi
7:10 AM72 °FPassing clouds.13 mph47%29.98 "Hg2 mi
6:40 AM73 °FPassing clouds.12 mph44%29.98 "Hg2 mi
6:10 AM73 °FPassing clouds.13 mph44%29.98 "Hg2 mi
Weather by CustomWeather, © 2014

See weather overviewHow to use our weather pages